Mobile, AL

9:11 PM CDT on October 21, 2017 (GMT -0500)
Mobile Regional

Weather History for KMOB - February, 2012

Change the Weather History Date:

Tuesday, February 7, 2012

  Actual Average Record
Temperature  
Mean Temperature 60 °F 52 °F  
Max Temperature 72 °F 63 °F 78 °F (1957)
Min Temperature 47 °F 42 °F 16 °F (1895)
Degree Days  
Heating Degree Days 5 13  
Month to date heating degree days 18 94  
Since 1 July heating degree days 891 1215  
Cooling Degree Days 0 0  
Month to date cooling degree days 4 0  
Year to date cooling degree days 31 7  
Growing Degree Days 8 (Base 50)    
Moisture  
Dew Point 43 °F    
Average Humidity 58    
Maximum Humidity 82    
Minimum Humidity 34    
Precipitation  
Precipitation 0.00 in 0.18 in 4.70 in (1974)
Month to date precipitation 1.10 1.29  
Year to date precipitation 3.34 6.94  
Snow  
Snow 0.00 in 0.00 in - ()
Month to date snowfall 0.0 0.0  
Since 1 July snowfall 0.0 T  
Snow Depth 0.00 in    
Sea Level Pressure  
Sea Level Pressure 30.16 in    
Wind  
Wind Speed 6 mph (North)    
Max Wind Speed 12 mph    
Max Gust Speed 14 mph    
Visibility 10 miles    
Events      
T = Trace of Precipitation, MM = Missing Value Source: NWS Daily Summary

Daily Weather History Graph

Daily Weather History Graph

Search for Another Location

Airport or City:

Trip Planner

Search our weather history database for the weather conditions in past years. The results will help you decide how hot, cold, wet, or windy it might be!

Date:

Astronomy

Feb. 07, 2012 Rise Set
Actual Time 6:40 AM CST 5:33 PM CST
Civil Twilight 6:15 AM CST 5:58 PM CST
Nautical Twilight 5:47 AM CST 6:27 PM CST
Astronomical Twilight 5:18 AM CST 6:55 PM CST
Moon 5:40 PM CST (2/7) 6:11 AM CST (2/7)
Length of Visible Light 11h 43m
Length of Day
10h 53m
Full, 100% of the Moon is Illuminated
Feb 7
Full
Feb 7
Full
Feb 14
Last Quarter
Feb 21
New
Feb 29
First Quarter

Hourly Weather History & Observations

Time (CST) Temp. Dew Point Humidity Pressure Visibility Wind Dir Wind Speed Gust Speed Precip Events Conditions
12:56 AM 51.1 °F 43.0 °F 74% 30.16 in 10.0 mi North 8.1 mph - N/A   Mostly Cloudy
1:56 AM 50.0 °F 42.1 °F 74% 30.16 in 10.0 mi North 8.1 mph - N/A   Scattered Clouds
2:56 AM 50.0 °F 41.0 °F 71% 30.16 in 10.0 mi North 5.8 mph - N/A   Scattered Clouds
3:56 AM 50.0 °F 41.0 °F 71% 30.14 in 10.0 mi North 6.9 mph - N/A   Mostly Cloudy
4:56 AM 48.9 °F 41.0 °F 74% 30.14 in 10.0 mi North 8.1 mph - N/A   Mostly Cloudy
5:56 AM 48.9 °F 41.0 °F 74% 30.16 in 10.0 mi North 6.9 mph - N/A   Mostly Cloudy
6:56 AM 46.9 °F 41.0 °F 80% 30.18 in 10.0 mi North 6.9 mph - N/A   Mostly Cloudy
7:56 AM 50.0 °F 42.1 °F 74% 30.18 in 10.0 mi NNE 6.9 mph - N/A   Scattered Clouds
8:56 AM 55.9 °F 46.0 °F 69% 30.19 in 10.0 mi NNE 6.9 mph - N/A   Scattered Clouds
9:56 AM 61.0 °F 46.9 °F 60% 30.19 in 10.0 mi NNE 8.1 mph - N/A   Scattered Clouds
10:56 AM 64.0 °F 45.0 °F 50% 30.18 in 10.0 mi NE 6.9 mph - N/A   Mostly Cloudy
11:56 AM 66.9 °F 45.0 °F 45% 30.16 in 10.0 mi North 8.1 mph - N/A   Scattered Clouds
12:56 PM 70.0 °F 43.0 °F 38% 30.13 in 10.0 mi North 6.9 mph - N/A   Partly Cloudy
1:56 PM 71.1 °F 41.0 °F 34% 30.12 in 10.0 mi North 5.8 mph - N/A   Scattered Clouds
2:56 PM 71.1 °F 41.0 °F 34% 30.11 in 10.0 mi NNW 5.8 mph - N/A   Partly Cloudy
3:56 PM 71.1 °F 41.0 °F 34% 30.11 in 10.0 mi North 5.8 mph - N/A   Scattered Clouds
4:56 PM 66.9 °F 42.1 °F 40% 30.11 in 10.0 mi North 5.8 mph - N/A   Scattered Clouds
5:56 PM 61.0 °F 43.0 °F 52% 30.12 in 10.0 mi North 5.8 mph - N/A   Scattered Clouds
6:56 PM 57.9 °F 44.1 °F 60% 30.15 in 10.0 mi NW 3.5 mph - N/A   Scattered Clouds
7:56 PM 53.1 °F 45.0 °F 74% 30.17 in 10.0 mi NNW 5.8 mph - N/A   Partly Cloudy
8:56 PM 55.9 °F 43.0 °F 62% 30.18 in 10.0 mi North 4.6 mph - N/A   Partly Cloudy
9:56 PM 54.0 °F 42.1 °F 64% 30.19 in 10.0 mi North 5.8 mph - N/A   Partly Cloudy
10:56 PM 54.0 °F 39.9 °F 59% 30.19 in 10.0 mi NNE 4.6 mph - N/A   Partly Cloudy
11:56 PM 53.1 °F 39.9 °F 61% 30.19 in 10.0 mi Calm Calm - N/A   Scattered Clouds